Home > Weather > Provincetown > Past weeks

Flag for USA Weather for the Past 2 Weeks in Provincetown, Massachusetts, USA

Now
46 °F

Fog.


Feels Like: 42 °F
Forecast: 45 / 51 °F
Wind: 7 mph from East

Location: Provincetown Weather Reporting Station

Current Time: May 2, 2016 at 4:43:19 AM

Latest Report: May 2, 2016 at 3:56 AM


Visibility: 5 mi

Pressure: 30.06 "Hg

Humidity: 100%

Dew Point: 46 °F

Location of ProvincetownLocation

Historic Weather in Provincetown — Graph

°F

Provincetown Temperature Yesterday

Maximum temperature yesterday: 53 °F (at 10:56 AM)
Minimum temperature yesterday: 34 °F (at 3:56 AM)
Average temperature yesterday: 46 °F

High & Low Weather Summary for the Past Weeks

 TemperatureHumidityPressure
High73 °F (Apr 22, 1:56 PM)100% (Apr 23, 8:56 AM)30.44 "Hg (Apr 23, 8:56 AM)
Low29 °F (Apr 30, 4:56 AM)26% (Apr 27, 2:56 PM)29.72 "Hg (Apr 26, 2:03 PM)
Average47 °F70%30.06 "Hg
* Reported Apr 17 2:56 AM — May 2 2:56 AM, Provincetown, Weather by CustomWeather, © 2016

Note: Actual official high and low records may vary slightly from our data, if they occured in-between our weather recording intervals... More about our weather records

Advertising

Provincetown Weather History for the Previous 24 Hours

Scroll right to see more
 ConditionsComfort  
Time TempWeatherWind HumidityBarometerVisibility
2:56 AM
Mon, May 2
46 °FLow clouds.8 mph96%30.05 "Hg10 mi
1:56 AM46 °FLight rain. Fog.6 mph96%30.09 "Hg3 mi
12:56 AM46 °FFog.7 mph96%30.11 "Hg4 mi
11:56 PM
Sun, May 1
46 °FLight rain. Low clouds.8 mph96%30.12 "Hg10 mi
10:56 PM46 °FLight rain. Low clouds.3 mph93%30.16 "Hg10 mi
9:56 PM45 °FLight rain. Fog.6 mph97%30.17 "Hg5 mi
8:56 PM45 °FLight rain. Overcast.3 mph93%30.20 "Hg9 mi
7:56 PM45 °FLight rain. Overcast.3 mph93%30.19 "Hg9 mi
6:56 PM46 °FLight rain. Overcast.3 mph89%30.20 "Hg10 mi
5:56 PM47 °FLight rain. Overcast.8 mph80%30.22 "Hg10 mi
4:56 PM47 °FOvercast.6 mph80%30.23 "Hg10 mi
3:56 PM49 °FLight rain. Overcast.9 mph64%30.24 "Hg10 mi
2:56 PM51 °FOvercast.10 mph38%30.24 "Hg10 mi
1:56 PM52 °FBroken clouds.13 mph32%30.23 "Hg10 mi
12:56 PM52 °FMore clouds than sun.10 mph37%30.25 "Hg10 mi
11:56 AM51 °FPartly sunny.12 mph36%30.25 "Hg10 mi
10:56 AM53 °FSunny.12 mph38%30.26 "Hg10 mi
9:56 AM52 °FSunny.8 mph41%30.27 "Hg10 mi
8:56 AM49 °FSunny.9 mph66%30.28 "Hg10 mi
7:56 AM47 °FSunny.6 mph77%30.28 "Hg10 mi
6:56 AM45 °FSunny.3 mph82%30.27 "Hg10 mi
5:56 AM37 °FClear.No wind89%30.25 "Hg10 mi
4:56 AM35 °FClear.No wind88%30.24 "Hg10 mi
Weather by CustomWeather, © 2016

See weather overviewHow to use our weather pages